Regional Weather Roundup
Issued by NWS

Home | Current Version | Previous Version | Graphics & Text | Print | Product List | Glossary On
Versions: 1 2 3 4 5 6 7 8 9 10 11 12 13 14 15 16 17 18 19 20 21 22 23 24 25 26 27 28 29 30 31 32 33 34 35 36 37 38 39 40 41 42 43 44 45 46 47 48 49 50
000
ASUS44 KMEG 031110
RWRTN
TENNESSEE HOURLY STATE WEATHER ROUNDUP
NATIONAL WEATHER SERVICE MEMPHIS TN
600 AM CDT SUN MAY 03 2015

TNZ002-004-019-021-049-052-054-088>092-031200-
WEST TENNESSEE

CITY           SKY/WX    TMP DP  RH WIND       PRES   REMARKS
MEMPHIS INTL   PTCLDY    57  47  69 CALM      30.06S
NWS MEMPHIS      N/A     51 N/A N/A MISG        N/A
JACKSON        CLEAR     46  44  93 CALM      30.08R
DYERSBURG      PTCLDY    54  39  58 CALM      30.08R
PARIS          CLEAR     50  46  87 CALM      30.08S
LEXINGTON      CLEAR     45  45 100 CALM      30.08S
$$

TNZ008-025-027-028-033-062-065-066-031200-
NORTH MIDDLE TENNESSEE

CITY           SKY/WX    TMP DP  RH WIND       PRES   REMARKS
NASHVILLE      CLEAR     50  48  93 CALM      30.11R
CLARKSVILLE    CLEAR     48  47  96 E3        30.09S FOG
SMYRNA         CLEAR     47  47 100 CALM      30.13R FOG
COOKEVILLE     CLEAR     43  43 100 CALM      30.11S
CROSSVILLE     CLEAR     47  41  80 CALM      30.15R
$$

TNZ061-075-076-078-094-096-097-031200-
SOUTH MIDDLE TENNESSEE

CITY           SKY/WX    TMP DP  RH WIND       PRES   REMARKS
FAYETTEVILLE   CLEAR     50  46  87 CALM      30.12R
TULLAHOMA      CLEAR     45  43  93 CALM      30.13R
WINCHESTER     CLEAR     46  45  93 CALM      30.13R
MCMINNVILLE    CLEAR     45  45 100 CALM      30.12R
COLUMBIA       CLEAR     46  46 100 CALM      30.10R
SHELBYVILLE    CLEAR     48  46  93 E3        30.12R
$$

TNZ017-018-042-046-047-031200-
NORTHEAST TENNESSEE

CITY           SKY/WX    TMP DP  RH WIND       PRES   REMARKS
TRI CITIES     PTCLDY    41  38  89 CALM      30.17R
ELIZABETHTON   MOSUNNY   43  37  81 CALM      30.18R
$$

TNZ012-013-036-069-073-074-031200-
CENTRAL EAST TENNESSEE

CITY           SKY/WX    TMP DP  RH WIND       PRES   REMARKS
KNOXVILLE      CLEAR     46  44  93 CALM      30.14R
OAK RIDGE      CLEAR     47  44  90 CALM      30.16R
GATLINBURG     SUNNY     43  41  93 CALM      30.15R
MORRISTOWN     SUNNY     48  43  81 NE3       30.16R
$$

TNZ083-085-099-031200-
SOUTHEAST TENNESSEE

CITY           SKY/WX    TMP DP  RH WIND       PRES   REMARKS
CHATTANOOGA    CLEAR     50  48  93 CALM      30.13R
$$

SKY/WX REPORTED AS FAIR MEANS FEW OR NO CLOUDS BELOW
12 THOUSAND FEET.




USA.gov is the U.S. government's official web portal to all federal, state and local government web resources and services.